| time (UTC) | temp C | wind direction | speed KPH | gust KPH | rain 1hr cm | rain 24hr cm | rain mn cm | humidity % | barometer mb |
| 20260505064540 | 15 | 105 | 9.7 | 24.1 | 0.00 | 0.00 | 0.00 | 51 | 1005.6 |
| 20260505063037 | 14 | 107 | 11.3 | 30.6 | 0.00 | 0.00 | 0.00 | 52 | 1005.5 |
| 20260505061641 | 14 | 113 | 3.2 | 14.5 | 0.00 | 0.00 | 0.00 | 52 | 1005.4 |
| 20260505060038 | 15 | 118 | 4.8 | 11.3 | 0.00 | 0.00 | 0.00 | 52 | 1005.4 |
| 20260505054550 | 15 | 111 | 6.4 | 12.9 | 0.00 | 0.00 | 0.00 | 51 | 1005.4 |
| 20260505053052 | 15 | 110 | 0.0 | 6.4 | 0.00 | 0.00 | 0.00 | 49 | 1005.3 |
| 20260505051638 | 15 | 104 | 4.8 | 17.7 | 0.00 | 0.00 | 0.00 | 50 | 1005.3 |
| 20260505041639 | 17 | 355 | 0.0 | 3.2 | 0.00 | 0.00 | 0.00 | 45 | 1004.7 |
| 20260505040043 | 17 | 355 | 0.0 | 4.8 | 0.00 | 0.00 | 0.00 | 44 | 1004.7 |
| 20260505034538 | 17 | 355 | 1.6 | 9.7 | 0.00 | 0.00 | 0.00 | 42 | 1004.7 |
| 20260505033043 | 18 | 355 | 0.0 | 9.7 | 0.00 | 0.00 | 0.00 | 40 | 1004.4 |
| 20260505031638 | 19 | 360 | 3.2 | 16.1 | 0.00 | 0.00 | 0.00 | 39 | 1004.2 |
| 20260505030038 | 20 | 360 | 3.2 | 19.3 | 0.00 | 0.00 | 0.00 | 39 | 1004.1 |
| 20260505024537 | 20 | 350 | 9.7 | 20.9 | 0.00 | 0.00 | 0.00 | 39 | 1004.1 |
| 20260505023036 | 20 | 5 | 9.7 | 20.9 | 0.00 | 0.00 | 0.00 | 37 | 1003.9 |
| 20260505021640 | 22 | 9 | 9.7 | 17.7 | 0.00 | 0.00 | 0.00 | 34 | 1003.9 |
| 20260505020035 | 22 | 11 | 8.0 | 22.5 | 0.00 | 0.00 | 0.00 | 33 | 1003.8 |
| 20260505014535 | 22 | 11 | 11.3 | 25.7 | 0.00 | 0.00 | 0.00 | 32 | 1003.7 |
| 20260505013034 | 22 | 5 | 14.5 | 29.0 | 0.00 | 0.00 | 0.00 | 31 | 1003.7 |
| 20260505011634 | 23 | 5 | 8.0 | 25.7 | 0.00 | 0.00 | 0.00 | 32 | 1003.8 |
| 20260505010033 | 23 | 26 | 12.9 | 24.1 | 0.00 | 0.00 | 0.00 | 30 | 1003.8 |
| 20260505004535 | 24 | 12 | 6.4 | 24.1 | 0.00 | 0.00 | 0.00 | 28 | 1004.0 |
| 20260505003031 | 23 | 312 | 11.3 | 32.2 | 0.00 | 0.00 | 0.00 | 28 | 1003.9 |
| 20260505001633 | 24 | 10 | 14.5 | 33.8 | 0.00 | 0.00 | 0.00 | 31 | 1004.0 |
| 20260505000032 | 25 | 343 | 9.7 | 32.2 | 0.00 | 0.00 | 0.00 | 31 | 1003.9 |
| 20260504234528 | 24 | 345 | 11.3 | 33.8 | 0.00 | 0.00 | 0.00 | 31 | 1004.0 |
| 20260504233025 | 24 | 324 | 17.7 | 33.8 | 0.00 | 0.00 | 0.00 | 31 | 1004.1 |
| 20260504231624 | 24 | 355 | 17.7 | 33.8 | 0.00 | 0.00 | 0.00 | 30 | 1004.0 |
| 20260504230027 | 24 | 9 | 14.5 | 30.6 | 0.00 | 0.00 | 0.00 | 31 | 1004.1 |
| 20260504224521 | 24 | 333 | 9.7 | 37.0 | 0.00 | 0.00 | 0.00 | 33 | 1004.2 |
| 20260504223020 | 24 | 9 | 9.7 | 25.7 | 0.00 | 0.00 | 0.00 | 32 | 1004.3 |
| 20260504221619 | 24 | 315 | 11.3 | 30.6 | 0.00 | 0.00 | 0.00 | 35 | 1004.4 |
| 20260504220021 | 23 | 305 | 9.7 | 30.6 | 0.00 | 0.00 | 0.00 | 34 | 1004.6 |
| 20260504214614 | 23 | 5 | 11.3 | 27.4 | 0.00 | 0.00 | 0.00 | 36 | 1004.6 |
| 20260504213014 | 23 | 355 | 11.3 | 37.0 | 0.00 | 0.00 | 0.00 | 34 | 1004.7 |
| 20260504211613 | 23 | 299 | 12.9 | 40.2 | 0.00 | 0.00 | 0.00 | 36 | 1004.8 |
| 20260504210014 | 23 | 281 | 11.3 | 38.6 | 0.00 | 0.00 | 0.00 | 35 | 1004.9 |
| 20260504204511 | 23 | 329 | 9.7 | 30.6 | 0.00 | 0.00 | 0.00 | 35 | 1005.0 |
| 20260504203012 | 23 | 203 | 8.0 | 24.1 | 0.00 | 0.00 | 0.00 | 39 | 1005.1 |
| 20260504201606 | 22 | 267 | 12.9 | 40.2 | 0.00 | 0.00 | 0.00 | 41 | 1005.1 |
| 20260504200012 | 22 | 244 | 12.9 | 30.6 | 0.00 | 0.00 | 0.00 | 40 | 1005.2 |
| 20260504194506 | 22 | 318 | 16.1 | 30.6 | 0.00 | 0.00 | 0.00 | 39 | 1005.2 |
| 20260504193004 | 22 | 278 | 14.5 | 30.6 | 0.00 | 0.00 | 0.00 | 41 | 1005.4 |
| 20260504191602 | 21 | 186 | 8.0 | 27.4 | 0.00 | 0.00 | 0.00 | 43 | 1005.4 |
| 20260504190010 | 21 | 231 | 9.7 | 24.1 | 0.00 | 0.00 | 0.00 | 44 | 1005.4 |
| 20260504184511 | 21 | 215 | 11.3 | 30.6 | 0.00 | 0.00 | 0.00 | 42 | 1005.4 |
| 20260504183003 | 21 | 248 | 11.3 | 30.6 | 0.00 | 0.00 | 0.00 | 40 | 1005.5 |
| 20260504181600 | 20 | 188 | 12.9 | 33.8 | 0.00 | 0.00 | 0.00 | 44 | 1005.5 |
| 20260504174606 | 20 | 241 | 11.3 | 30.6 | 0.00 | 0.00 | 0.00 | 46 | 1005.5 |
| 20260504173103 | 20 | 254 | 9.7 | 27.4 | 0.00 | 0.00 | 0.00 | 42 | 1005.5 |
| 20260504171555 | 20 | 202 | 8.0 | 17.7 | 0.00 | 0.00 | 0.00 | 44 | 1005.4 |